Regional Weather Roundup
Issued by NWS

Home | Current Version | Previous Version | Text Only | Print | Product List | Glossary Off
Versions: 1 2 3 4 5 6 7 8 9 10 11 12 13 14 15 16 17 18 19 20 21 22 23 24 25 26 27 28 29 30 31 32 33 34 35 36 37 38 39 40 41 42 43 44 45 46 47 48 49 50

000
ASUS43 KIND 251409
RWRIN

WEATHER ROUNDUP FOR INDIANA
NATIONAL WEATHER SERVICE INDIANAPOLIS IN
1000 AM EDT TUE JUL 25 2017

NOTE: "FAIR" INDICATES FEW OR NO CLOUDS BELOW 12,000 FEET WITH NO
SIGNIFICANT WEATHER AND/OR OBSTRUCTIONS TO VISIBILITY.

* - STATION DOES NOT REPORT WEATHER SUCH AS PRECIPITATION OR FOG.

+ - STATION NOT QUALITY CONTROLLED BY THE NATIONAL WEATHER SERVICE.
    USE DATA WITH CAUTION...ESPECIALLY DEWPOINT AND RELATIVE
    HUMIDITY OBSERVATIONS.

INZ001>003-010>013-019-020-251500-
NORTHWEST INDIANA

CITY           SKY/WX    TMP DP  RH WIND       PRES   REMARKS
GARY /AIRPORT/ MOSUNNY   72  57  60 SE12      30.22S
KNOX *+        SUNNY     68  55  64 SE8       30.23S
LA PORTE +     SUNNY     68  56  64 SE8       30.24S
MICHIGAN CITY+ SUNNY     70  54  56 SE6       30.23S
MONTICELLO +   SUNNY     68  60  75 E7        30.22R
RENSSELAER +   SUNNY     68  59  73 SE7       30.22S
VALPARAISO     SUNNY     71  61  70 SE8       30.23S

$$

LMZ046-743>745-251500-
SOUTHERN LAKE MICHIGAN

STATION/POSITION TIME  TEMP    WIND        PRES    WAVE
                       AIR SEA DIR/SP/G            HT
                 (UTC) (F)     (DEG/KT/KT) (MB)    (FT)
BURNS HARBOR     1340   71     130/  3/  8 1023.7R
MICHIGAN CITY    1340   69     120/  8/ 12   N/A
5NW MICH CITY    1400   69 74  150/ 10/ 12   N/A     2

$$

INZ004-005-014>016-021>024-251500-
NORTH CENTRAL INDIANA

CITY           SKY/WX    TMP DP  RH WIND       PRES   REMARKS
ELKHART        SUNNY    N/A N/A N/A CALM      30.23R
GOSHEN         SUNNY     70  53  54 SE6       30.24R
LOGANSPORT +   SUNNY     68  59  73 SE6       30.23F
PERU/GRISSOM   SUNNY     69  58  67 SE7       30.21S
ROCHESTER +    SUNNY     72  55  56 E8        30.24R
SOUTH BEND     SUNNY     70  54  56 SE8       30.24R
WARSAW +       SUNNY     68  54  60 SE5       30.24R

$$

INZ006>009-017-018-025>027-251500-
NORTHEAST INDIANA

CITY           SKY/WX    TMP DP  RH WIND       PRES   REMARKS
AUBURN +       SUNNY     68  52  56 E7        30.25R
FORT WAYNE     MOSUNNY   68  55  63 E7        30.24S
HUNTINGTON +   SUNNY     66  56  69 E5        30.23S
KENDALLVILLE + SUNNY     68  53  58 E6        30.25R

$$

INZ028-029-035-036-043>045-051>053-251500-
WEST CENTRAL INDIANA

CITY           SKY/WX    TMP DP  RH WIND       PRES   REMARKS
GREENCASTLE +  SUNNY     68  59  73 SE7       30.20F
LAFAYETTE      SUNNY     70  60  70 E10       30.20F
TERRE HAUTE    SUNNY     71  61  70 SE12      30.17F

$$

INZ030>032-037>040-046>048-054>057-064-065-251500-
CENTRAL INDIANA

CITY           SKY/WX    TMP DP  RH WIND       PRES   REMARKS
CP ATTERBURY + SUNNY     70  59  68 E6        30.21S
COLUMBUS       MOSUNNY   70  57  64 E6        30.21R
FRANKFORT +    SUNNY     71  62  73 SE8       30.23S
GREENWOOD *+   SUNNY    N/A N/A N/A E8        30.22R
INDIANAPOLIS   MOSUNNY   71  57  61 SE10      30.20R
-EAGLE CREEK   SUNNY     71  55  56 SE9       30.20S
KOKOMO +       SUNNY     68  59  73 SE7       30.23S
MARION +       SUNNY     68  55  64 E6        30.23S
MT COMFORT *+  SUNNY     68  59  73 E6        30.22R
SHELBYVILLE    SUNNY     71  59  65 E9        30.20R
ZIONSVILLE +   SUNNY     68  59  72 E8        30.22F

$$

INZ033-034-041-042-049-050-058-059-251500-
EAST CENTRAL INDIANA

CITY           SKY/WX    TMP DP  RH WIND       PRES   REMARKS
MUNCIE         SUNNY     70  59  68 N7        30.23R
RICHMOND +     SUNNY     68  57  68 E8        30.23S

$$

INZ060-061-067>069-081>083-085>088-251500-
SOUTHWEST INDIANA

CITY           SKY/WX    TMP DP  RH WIND       PRES   REMARKS
EVANSVILLE     MOSUNNY   75  66  73 NE10      30.13S
HUNTINGBURG *+ MOSUNNY   74  66  76 E9        30.15R

$$

INZ062-063-066-070>080-084-089>092-251500-
SOUTH CENTRAL AND SOUTHEAST INDIANA

CITY           SKY/WX    TMP DP  RH WIND       PRES   REMARKS
BEDFORD +      SUNNY     72  59  64 E7        30.17S
BLOOMINGTON    SUNNY     72  59  63 E10       30.19R
MADISON *+     SUNNY     70  57  64 E8        30.21R
NORTH VERNON + SUNNY     70  57  64 E7        30.20R
SEYMOUR +      SUNNY    N/A N/A N/A E7        30.18R

$$





USA.gov is the U.S. government's official web portal to all federal, state and local government web resources and services.